Pueblo, CO

10:33 AM MDT on April 28, 2017 (GMT -0600)
Pueblo Memorial

Weather History for KPUB - January, 2014

Change the Weather History Date:

Monday, January 6, 2014

  Actual Average Record
Temperature  
Mean Temperature 10 °F 30 °F  
Max Temperature 25 °F 47 °F 74 °F (2006)
Min Temperature -6 °F 14 °F -18 °F (1913)
Degree Days  
Heating Degree Days 55 35  
Month to date heating degree days 241 210  
Since 1 July heating degree days 2479 2573  
Cooling Degree Days 0 0  
Month to date cooling degree days 0 0  
Year to date cooling degree days 0 0  
Moisture  
Dew Point 4 °F    
Average Humidity 69    
Maximum Humidity 88    
Minimum Humidity 50    
Precipitation  
Precipitation T in 0.01 in 0.34 in (1988)
Month to date precipitation 0.04 0.07  
Year to date precipitation 0.04 0.07  
Snow  
Snow T in 0.20 in 9.40 in (1988)
Month to date snowfall 1.1 1.2  
Since 1 July snowfall 7.0 12.7  
Snow Depth 1.00 in    
Sea Level Pressure  
Sea Level Pressure 30.46 in    
Wind  
Wind Speed 3 mph (WSW)    
Max Wind Speed 9 mph    
Max Gust Speed 12 mph    
Visibility 10 miles    
Events      
T = Trace of Precipitation, MM = Missing Value Source: NWS Daily Summary

Daily Weather History Graph

Daily Weather History Graph

Search for Another Location

Airport or City:

Trip Planner

Search our weather history database for the weather conditions in past years. The results will help you decide how hot, cold, wet, or windy it might be!

Date:

Astronomy

Jan. 06, 2014 Rise Set
Actual Time 7:15 AM MST 4:52 PM MST
Civil Twilight 6:45 AM MST 5:22 PM MST
Nautical Twilight 6:12 AM MST 5:55 PM MST
Astronomical Twilight 5:40 AM MST 6:27 PM MST
Moon 10:37 AM MST (1/6) 11:22 PM MST (1/6)
Length of Visible Light 10h 36m
Length of Day
9h 37m
Waxing Crescent, 35% of the Moon is Illuminated
Jan 6
Waxing Crescent
Jan 7
First Quarter
Jan 15
Full
Jan 23
Last Quarter
Jan 30
New

Hourly Weather History & Observations

Time (MST) Temp. Windchill Dew Point Humidity Pressure Visibility Wind Dir Wind Speed Gust Speed Precip Events Conditions
1:53 AM 8.1 °F -2.0 °F 3.0 °F 80% 30.52 in 10.0 mi SSW 5.8 mph - N/A   Overcast
2:53 AM 7.0 °F -1.7 °F 1.9 °F 80% 30.53 in 10.0 mi South 4.6 mph - N/A   Overcast
3:53 AM 3.9 °F -5.3 °F -0.9 °F 80% 30.55 in 10.0 mi South 4.6 mph - N/A   Clear
4:53 AM 3.0 °F - -2.9 °F 76% 30.56 in 10.0 mi Calm Calm - N/A   Clear
5:53 AM -2.0 °F -12.2 °F -6.0 °F 83% 30.57 in 10.0 mi West 4.6 mph - N/A   Clear
7:53 AM -2.0 °F -10.1 °F -6.0 °F 83% 30.59 in 10.0 mi SSE 3.5 mph - N/A   Clear
8:53 AM 3.9 °F -8.2 °F -2.0 °F 76% 30.58 in 10.0 mi SW 6.9 mph - N/A   Clear
9:53 AM 10.0 °F 3.6 °F 1.9 °F 70% 30.56 in 10.0 mi WNW 3.5 mph - N/A   Clear
10:53 AM 12.9 °F 2.6 °F 3.0 °F 65% 30.52 in 10.0 mi West 6.9 mph - N/A   Clear
11:53 AM 15.1 °F - 3.9 °F 61% 30.48 in 10.0 mi Calm Calm - N/A   Clear
12:53 PM 19.0 °F - 5.0 °F 54% 30.43 in 10.0 mi Calm Calm - N/A   Clear
1:53 PM 21.9 °F 17.2 °F 8.1 °F 55% 30.39 in 10.0 mi Variable 3.5 mph - N/A   Clear
2:53 PM 25.0 °F - 8.1 °F 49% 30.37 in 10.0 mi Calm Calm - N/A   Clear
3:53 PM 24.1 °F - 8.1 °F 51% 30.38 in 10.0 mi Calm Calm - N/A   Clear
4:53 PM 19.9 °F 14.9 °F 10.0 °F 65% 30.39 in 9.0 mi SSW 3.5 mph - N/A   Clear
5:53 PM 17.1 °F - 8.1 °F 68% 30.43 in 9.0 mi Calm Calm - N/A   Clear
6:53 PM 14.0 °F - 7.0 °F 74% 30.43 in 10.0 mi Calm Calm - N/A   Clear
7:53 PM 15.1 °F 4.2 °F 6.1 °F 68% 30.43 in 10.0 mi West 8.1 mph - N/A   Clear
8:53 PM 14.0 °F 3.9 °F 6.1 °F 71% 30.40 in 10.0 mi West 6.9 mph - N/A   Clear
9:53 PM 12.0 °F 2.7 °F 6.1 °F 77% 30.36 in 10.0 mi West 5.8 mph - N/A   Clear
10:53 PM 10.9 °F 4.7 °F 5.0 °F 77% 30.33 in 10.0 mi WSW 3.5 mph - N/A   Clear
11:53 PM 10.0 °F - 5.0 °F 80% 30.30 in 10.0 mi Calm Calm - N/A   Clear